User: anonymous
Location: Strohbehn Observatory
(42.4649°N, 93.8239°W)
Time: 15:01:33
(UTC-05:00)
Language:

SL-16 R/B - Orbit

View from above orbital plane
View from above orbital plane
View from above satellite
View from above satellite

Ground track
Ground track

The orbit data is extracted from the following two-line orbital elements,

1 31793U 07029B   14261.49089752  .00000283  00000-0  17330-3 0   653
2 31793 070.9772 335.1890 0002305 265.3942 182.1293 14.14275958372944
Epoch (UTC): 18 September 2014 11:46:53
Eccentricity: 0.0002305
inclination: 70.9772°
perigee height: 843 km
apogee height: 846 km
right ascension of ascending node: 335.1890°
argument of perigee: 265.3942°
revolutions per day: 14.14275958
mean anomaly at epoch: 182.1293°
orbit number at epoch: 37294

The dashed part of the orbit path shows where the satellite is in the earth's shadow,  

DLR